Time,TemperatureF,DewpointF,PressureIn,WindDirection,WindDirectionDegrees,WindSpeedMPH,WindSpeedGustMPH,Humidity,HourlyPrecipIn,Conditions,Clouds,dailyrainin,SoftwareType,DateUTC
2013-03-02 00:00:00,37.4,3.9,29.85,SE,135,0.0,0.0,24,0.00,,---,0.00,VWS V14.01,2013-03-02 05:00:00,
2013-03-02 00:05:00,37.2,3.8,29.85,SE,135,0.0,0.0,24,0.00,,---,0.00,VWS V14.01,2013-03-02 05:05:00,
2013-03-02 00:10:00,37.2,6.3,29.85,SE,135,0.0,0.0,27,0.00,,---,0.00,VWS V14.01,2013-03-02 05:10:00,
2013-03-02 00:15:00,37.0,3.6,29.85,SE,135,0.0,0.0,24,0.00,,---,0.00,VWS V14.01,2013-03-02 05:15:00,
2013-03-02 00:20:00,36.9,6.0,29.85,SE,135,0.0,0.0,27,0.00,,---,0.00,VWS V14.01,2013-03-02 05:20:00,
2013-03-02 00:25:00,37.0,3.6,29.85,SE,135,0.0,0.0,24,0.00,,---,0.00,VWS V14.01,2013-03-02 05:25:00,
2013-03-02 00:30:00,36.9,3.5,29.85,SE,135,0.0,0.0,24,0.00,,---,0.00,VWS V14.01,2013-03-02 05:30:00,
2013-03-02 00:35:00,37.0,3.6,29.85,SE,135,0.0,0.0,24,0.00,,---,0.00,VWS V14.01,2013-03-02 05:35:00,
2013-03-02 00:40:00,37.0,3.6,29.85,SE,135,0.0,0.0,24,0.00,,---,0.00,VWS V14.01,2013-03-02 05:40:00,
2013-03-02 00:45:00,37.0,3.6,29.85,SE,135,0.0,0.0,24,0.00,,---,0.00,VWS V14.01,2013-03-02 05:45:00,
2013-03-02 00:50:00,36.9,3.5,29.85,SE,135,0.0,0.0,24,0.00,,---,0.00,VWS V14.01,2013-03-02 05:50:00,
2013-03-02 00:55:00,36.9,3.5,29.85,SE,135,0.0,0.0,24,0.00,,---,0.00,VWS V14.01,2013-03-02 05:55:00,
2013-03-02 01:00:00,36.9,6.0,29.85,SE,135,0.0,0.0,27,0.00,,---,0.00,VWS V14.01,2013-03-02 06:00:00,
2013-03-02 01:05:00,36.7,5.9,29.85,SE,135,0.0,0.0,27,0.00,,---,0.00,VWS V14.01,2013-03-02 06:05:00,
2013-03-02 01:10:00,36.7,5.9,29.85,SE,135,0.0,0.0,27,0.00,,---,0.00,VWS V14.01,2013-03-02 06:10:00,
2013-03-02 01:15:00,36.9,6.0,29.85,SE,135,0.0,0.0,27,0.00,,---,0.00,VWS V14.01,2013-03-02 06:15:00,
2013-03-02 01:20:00,36.9,6.0,29.85,SE,135,0.0,0.0,27,0.00,,---,0.00,VWS V14.01,2013-03-02 06:20:00,
2013-03-02 01:25:00,36.9,6.0,29.85,SE,135,0.0,0.0,27,0.00,,---,0.00,VWS V14.01,2013-03-02 06:25:00,
2013-03-02 01:30:00,36.9,6.0,29.85,SE,135,0.0,0.0,27,0.00,,---,0.00,VWS V14.01,2013-03-02 06:30:00,
2013-03-02 01:35:00,36.9,6.0,29.85,SE,135,0.0,0.0,27,0.00,,---,0.00,VWS V14.01,2013-03-02 06:35:00,
2013-03-02 01:40:00,36.9,6.0,29.85,SE,135,0.0,0.0,27,0.00,,---,0.00,VWS V14.01,2013-03-02 06:40:00,
2013-03-02 01:45:00,36.9,6.0,29.85,SE,135,0.0,0.0,27,0.00,,---,0.00,VWS V14.01,2013-03-02 06:45:00,
2013-03-02 01:50:00,36.9,6.0,29.85,SE,135,0.0,0.0,27,0.00,,---,0.00,VWS V14.01,2013-03-02 06:50:00,
2013-03-02 01:55:00,36.7,5.9,29.85,SE,135,0.0,0.0,27,0.00,,---,0.00,VWS V14.01,2013-03-02 06:55:00,
2013-03-02 02:00:00,36.7,5.9,29.85,SE,135,0.0,0.0,27,0.00,,---,0.00,VWS V14.01,2013-03-02 07:00:00,
2013-03-02 02:05:00,36.7,7.4,29.85,SE,135,0.0,0.0,29,0.00,,---,0.00,VWS V14.01,2013-03-02 07:05:00,
2013-03-02 02:10:00,36.7,7.4,29.85,SE,135,0.0,0.0,29,0.00,,---,0.00,VWS V14.01,2013-03-02 07:10:00,
2013-03-02 02:15:00,36.7,5.9,29.85,SE,135,0.0,0.0,27,0.00,,---,0.00,VWS V14.01,2013-03-02 07:15:00,
2013-03-02 02:20:00,36.5,7.3,29.85,SE,135,0.0,0.0,29,0.00,,---,0.00,VWS V14.01,2013-03-02 07:20:00,
2013-03-02 02:25:00,36.5,5.7,29.85,SE,135,0.0,0.0,27,0.00,,---,0.00,VWS V14.01,2013-03-02 07:25:00,
2013-03-02 02:30:00,36.3,7.1,29.85,SE,135,0.0,0.0,29,0.00,,---,0.00,VWS V14.01,2013-03-02 07:30:00,
2013-03-02 02:35:00,36.3,7.9,29.85,SE,135,0.0,0.0,30,0.00,,---,0.00,VWS V14.01,2013-03-02 07:35:00,
2013-03-02 02:40:00,36.3,5.6,29.85,SE,135,0.0,0.0,27,0.00,,---,0.00,VWS V14.01,2013-03-02 07:40:00,
2013-03-02 02:45:00,36.1,5.4,29.85,SE,135,0.0,0.0,27,0.00,,---,0.00,VWS V14.01,2013-03-02 07:45:00,
2013-03-02 02:50:00,36.1,5.4,29.82,SE,135,0.0,0.0,27,0.00,,---,0.00,VWS V14.01,2013-03-02 07:50:00,
2013-03-02 02:55:00,36.1,5.4,29.82,SE,135,0.0,0.0,27,0.00,,---,0.00,VWS V14.01,2013-03-02 07:55:00,
2013-03-02 03:00:00,36.1,7.0,29.82,SE,135,0.0,0.0,29,0.00,,---,0.00,VWS V14.01,2013-03-02 08:00:00,
2013-03-02 03:05:00,36.0,5.2,29.82,SE,135,0.0,0.0,27,0.00,,---,0.00,VWS V14.01,2013-03-02 08:05:00,
2013-03-02 03:10:00,36.0,5.2,29.82,SE,135,0.0,0.0,27,0.00,,---,0.00,VWS V14.01,2013-03-02 08:10:00,
2013-03-02 03:15:00,35.8,5.1,29.82,SE,135,0.0,0.0,27,0.00,,---,0.00,VWS V14.01,2013-03-02 08:15:00,
2013-03-02 03:20:00,35.8,5.1,29.85,SE,135,0.0,0.0,27,0.00,,---,0.00,VWS V14.01,2013-03-02 08:20:00,
2013-03-02 03:25:00,35.8,6.7,29.85,SE,135,0.0,0.0,29,0.00,,---,0.00,VWS V14.01,2013-03-02 08:25:00,
2013-03-02 03:30:00,35.6,6.5,29.85,SE,135,0.0,0.0,29,0.00,,---,0.00,VWS V14.01,2013-03-02 08:30:00,
2013-03-02 03:35:00,35.6,6.5,29.82,SE,135,0.0,0.0,29,0.00,,---,0.00,VWS V14.01,2013-03-02 08:35:00,
2013-03-02 03:40:00,35.6,4.9,29.82,SE,135,0.0,0.0,27,0.00,,---,0.00,VWS V14.01,2013-03-02 08:40:00,
2013-03-02 03:45:00,35.6,6.5,29.82,SE,135,0.0,0.0,29,0.00,,---,0.00,VWS V14.01,2013-03-02 08:45:00,
2013-03-02 03:50:00,35.4,7.1,29.85,SE,135,0.0,0.0,30,0.00,,---,0.00,VWS V14.01,2013-03-02 08:50:00,
2013-03-02 03:55:00,35.4,7.1,29.85,SE,135,0.0,0.0,30,0.00,,---,0.00,VWS V14.01,2013-03-02 08:55:00,
2013-03-02 04:00:00,35.4,7.1,29.85,SE,135,0.0,0.0,30,0.00,,---,0.00,VWS V14.01,2013-03-02 09:00:00,
2013-03-02 04:05:00,35.4,7.1,29.85,SE,135,0.0,0.0,30,0.00,,---,0.00,VWS V14.01,2013-03-02 09:05:00,
2013-03-02 04:10:00,35.2,4.6,29.85,SE,135,0.0,0.0,27,0.00,,---,0.00,VWS V14.01,2013-03-02 09:10:00,
2013-03-02 04:15:00,35.2,6.9,29.85,SE,135,0.0,0.0,30,0.00,,---,0.00,VWS V14.01,2013-03-02 09:15:00,
2013-03-02 04:20:00,35.1,6.8,29.85,SE,135,0.0,0.0,30,0.00,,---,0.00,VWS V14.01,2013-03-02 09:20:00,
2013-03-02 04:25:00,35.1,6.8,29.85,SE,135,0.0,0.0,30,0.00,,---,0.00,VWS V14.01,2013-03-02 09:25:00,
2013-03-02 04:30:00,35.1,6.8,29.85,SE,135,0.0,0.0,30,0.00,,---,0.00,VWS V14.01,2013-03-02 09:30:00,
2013-03-02 04:35:00,35.1,6.8,29.82,SE,135,0.0,0.0,30,0.00,,---,0.00,VWS V14.01,2013-03-02 09:35:00,
2013-03-02 04:40:00,35.1,6.8,29.82,SE,135,0.0,0.0,30,0.00,,---,0.00,VWS V14.01,2013-03-02 09:40:00,
2013-03-02 04:45:00,34.9,6.6,29.82,SE,135,0.0,0.0,30,0.00,,---,0.00,VWS V14.01,2013-03-02 09:45:00,
2013-03-02 04:50:00,34.9,6.6,29.82,SE,135,2.7,3.1,30,0.00,,---,0.00,VWS V14.01,2013-03-02 09:50:00,
2013-03-02 04:55:00,34.9,6.6,29.82,SE,135,0.0,3.6,30,0.00,,---,0.00,VWS V14.01,2013-03-02 09:55:00,
2013-03-02 05:00:00,34.9,6.6,29.82,SE,135,0.0,0.0,30,0.00,,---,0.00,VWS V14.01,2013-03-02 10:00:00,
2013-03-02 05:05:00,34.7,6.4,29.82,SE,135,2.2,2.2,30,0.00,,---,0.00,VWS V14.01,2013-03-02 10:05:00,
2013-03-02 05:10:00,34.7,6.4,29.82,SE,135,0.0,0.0,30,0.00,,---,0.00,VWS V14.01,2013-03-02 10:10:00,
2013-03-02 05:15:00,34.5,6.3,29.82,SE,135,0.0,2.2,30,0.00,,---,0.00,VWS V14.01,2013-03-02 10:15:00,
2013-03-02 05:20:00,34.5,6.3,29.85,SE,135,0.0,0.0,30,0.00,,---,0.00,VWS V14.01,2013-03-02 10:20:00,
2013-03-02 05:25:00,34.5,6.3,29.85,SE,135,0.0,0.0,30,0.00,,---,0.00,VWS V14.01,2013-03-02 10:25:00,
2013-03-02 05:30:00,34.5,6.3,29.85,SE,135,0.0,0.0,30,0.00,,---,0.00,VWS V14.01,2013-03-02 10:30:00,
2013-03-02 05:35:00,34.5,6.3,29.85,SE,135,0.0,0.0,30,0.00,,---,0.00,VWS V14.01,2013-03-02 10:35:00,
2013-03-02 05:40:00,34.3,6.1,29.85,SE,135,0.0,0.0,30,0.00,,---,0.00,VWS V14.01,2013-03-02 10:40:00,
2013-03-02 05:41:00,34.3,6.1,29.85,SE,135,0.0,0.0,30,0.00,,---,0.00,VWS V14.01,2013-03-02 10:41:00,
2013-03-02 05:45:00,34.3,6.1,29.85,SE,135,0.0,0.0,30,0.00,,---,0.00,VWS V14.01,2013-03-02 10:45:00,
2013-03-02 05:46:00,34.3,6.1,29.85,SE,135,0.0,2.2,30,0.00,,---,0.00,VWS V14.01,2013-03-02 10:46:00,
2013-03-02 05:50:00,34.3,6.1,29.85,SE,135,0.0,2.2,30,0.00,,---,0.00,VWS V14.01,2013-03-02 10:50:00,
2013-03-02 05:51:00,34.2,6.0,29.85,SE,135,0.0,0.0,30,0.00,,---,0.00,VWS V14.01,2013-03-02 10:51:00,
2013-03-02 05:55:00,34.2,6.0,29.85,SE,135,0.0,0.0,30,0.00,,---,0.00,VWS V14.01,2013-03-02 10:55:00,
2013-03-02 05:56:00,34.2,6.0,29.85,SE,135,0.0,0.0,30,0.00,,---,0.00,VWS V14.01,2013-03-02 10:56:00,
2013-03-02 06:00:00,34.2,6.0,29.85,SE,135,0.0,0.0,30,0.00,,---,0.00,VWS V14.01,2013-03-02 11:00:00,
2013-03-02 06:01:00,34.2,6.0,29.85,SE,135,0.0,0.0,30,0.00,,---,0.00,VWS V14.01,2013-03-02 11:01:00,
2013-03-02 06:05:00,34.0,5.8,29.85,SE,135,0.0,2.2,30,0.00,,---,0.00,VWS V14.01,2013-03-02 11:05:00,
2013-03-02 06:06:00,34.0,5.8,29.85,SSE,158,0.0,2.7,30,0.00,,---,0.00,VWS V14.01,2013-03-02 11:06:00,
2013-03-02 06:10:00,34.0,5.8,29.85,SSE,158,0.0,2.7,30,0.00,,---,0.00,VWS V14.01,2013-03-02 11:10:00,
2013-03-02 06:11:00,34.0,5.8,29.85,SSE,158,0.0,2.2,30,0.00,,---,0.00,VWS V14.01,2013-03-02 11:11:00,
2013-03-02 06:15:00,33.8,5.7,29.85,SSE,158,0.0,2.2,30,0.00,,---,0.00,VWS V14.01,2013-03-02 11:15:00,
2013-03-02 06:16:00,33.8,5.7,29.85,SSE,158,0.0,3.6,30,0.00,,---,0.00,VWS V14.01,2013-03-02 11:16:00,
2013-03-02 06:20:00,33.8,5.7,29.82,SSE,158,2.7,3.6,30,0.00,,---,0.00,VWS V14.01,2013-03-02 11:20:00,
2013-03-02 06:21:00,33.8,5.7,29.82,SSE,158,4.9,5.8,30,0.00,,---,0.00,VWS V14.01,2013-03-02 11:21:00,
2013-03-02 06:25:00,33.6,5.5,29.82,SSE,158,0.0,5.8,30,0.00,,---,0.00,VWS V14.01,2013-03-02 11:25:00,
2013-03-02 06:26:00,33.6,5.5,29.82,SSE,158,0.0,2.2,30,0.00,,---,0.00,VWS V14.01,2013-03-02 11:26:00,
2013-03-02 06:30:00,33.6,5.5,29.82,SSE,158,0.0,2.2,30,0.00,,---,0.00,VWS V14.01,2013-03-02 11:30:00,
2013-03-02 06:31:00,33.6,5.5,29.82,SSE,158,0.0,0.0,30,0.00,,---,0.00,VWS V14.01,2013-03-02 11:31:00,
2013-03-02 06:35:00,33.6,5.5,29.82,SSE,158,0.0,2.2,30,0.00,,---,0.00,VWS V14.01,2013-03-02 11:35:00,
2013-03-02 06:36:00,33.4,5.3,29.82,SSE,158,0.0,0.0,30,0.00,,---,0.00,VWS V14.01,2013-03-02 11:36:00,
2013-03-02 06:40:00,33.4,5.3,29.82,SSE,158,0.0,2.2,30,0.00,,---,0.00,VWS V14.01,2013-03-02 11:40:00,
2013-03-02 06:41:00,33.4,5.3,29.82,SSE,158,0.0,0.0,30,0.00,,---,0.00,VWS V14.01,2013-03-02 11:41:00,
2013-03-02 06:45:00,33.4,5.3,29.82,SSE,158,0.0,0.0,30,0.00,,---,0.00,VWS V14.01,2013-03-02 11:45:00,
2013-03-02 06:46:00,33.4,5.3,29.82,SSE,158,0.0,0.0,30,0.00,,---,0.00,VWS V14.01,2013-03-02 11:46:00,
2013-03-02 06:50:00,33.4,6.1,29.85,SSE,158,0.0,0.0,31,0.00,,---,0.00,VWS V14.01,2013-03-02 11:50:00,
2013-03-02 06:51:00,33.4,6.1,29.85,SSE,158,0.0,0.0,31,0.00,,---,0.00,VWS V14.01,2013-03-02 11:51:00,
2013-03-02 06:55:00,33.3,5.2,29.85,SSE,158,0.0,0.0,30,0.00,,---,0.00,VWS V14.01,2013-03-02 11:55:00,
2013-03-02 06:56:00,33.3,5.2,29.85,SSE,158,2.2,2.7,30,0.00,,---,0.00,VWS V14.01,2013-03-02 11:56:00,
2013-03-02 07:00:00,33.3,5.2,29.85,SSE,158,0.0,2.7,30,0.00,,---,0.00,VWS V14.01,2013-03-02 12:00:00,
2013-03-02 07:01:00,33.3,5.2,29.85,SSE,158,0.0,2.7,30,0.00,,---,0.00,VWS V14.01,2013-03-02 12:01:00,
2013-03-02 07:05:00,33.3,5.2,29.85,SSE,158,0.0,2.7,30,0.00,,---,0.00,VWS V14.01,2013-03-02 12:05:00,
2013-03-02 07:06:00,33.3,5.2,29.85,SSE,158,0.0,0.0,30,0.00,,---,0.00,VWS V14.01,2013-03-02 12:06:00,
2013-03-02 07:10:00,33.3,5.9,29.85,SSE,158,0.0,0.0,31,0.00,,---,0.00,VWS V14.01,2013-03-02 12:10:00,
2013-03-02 07:15:00,33.4,6.1,29.85,SSE,158,0.0,0.0,31,0.00,,---,0.00,VWS V14.01,2013-03-02 12:15:00,
2013-03-02 07:20:00,33.4,5.3,29.85,SSE,158,0.0,2.2,30,0.00,,---,0.00,VWS V14.01,2013-03-02 12:20:00,
2013-03-02 07:25:00,33.4,5.3,29.85,SSE,158,2.2,2.2,30,0.00,,---,0.00,VWS V14.01,2013-03-02 12:25:00,
2013-03-02 07:30:00,33.4,5.3,29.85,SSE,158,0.0,0.0,30,0.00,,---,0.00,VWS V14.01,2013-03-02 12:30:00,
2013-03-02 07:35:00,33.6,5.5,29.85,SSE,158,0.0,0.0,30,0.00,,---,0.00,VWS V14.01,2013-03-02 12:35:00,
2013-03-02 07:36:00,33.6,5.5,29.85,SSE,158,0.0,0.0,30,0.00,,---,0.00,VWS V14.01,2013-03-02 12:36:00,
2013-03-02 07:40:00,33.6,6.2,29.85,SSE,158,0.0,0.0,31,0.00,,---,0.00,VWS V14.01,2013-03-02 12:40:00,
2013-03-02 07:45:00,33.8,5.7,29.85,SSE,158,2.2,2.2,30,0.00,,---,0.00,VWS V14.01,2013-03-02 12:45:00,
2013-03-02 07:50:00,33.8,5.7,29.85,SSE,158,0.0,2.7,30,0.00,,---,0.00,VWS V14.01,2013-03-02 12:50:00,
2013-03-02 07:51:00,33.8,5.7,29.85,SSE,158,2.2,2.7,30,0.00,,---,0.00,VWS V14.01,2013-03-02 12:51:00,
2013-03-02 07:55:00,33.8,5.7,29.85,SSE,158,0.0,2.7,30,0.00,,---,0.00,VWS V14.01,2013-03-02 12:55:00,
2013-03-02 07:56:00,33.8,5.7,29.85,SSE,158,0.0,0.0,30,0.00,,---,0.00,VWS V14.01,2013-03-02 12:56:00,
2013-03-02 08:00:00,33.8,5.7,29.85,SSE,158,0.0,0.0,30,0.00,,---,0.00,VWS V14.01,2013-03-02 13:00:00,
2013-03-02 08:01:00,34.0,5.8,29.85,SSE,158,0.0,0.0,30,0.00,,---,0.00,VWS V14.01,2013-03-02 13:01:00,
2013-03-02 08:05:00,34.0,5.8,29.85,SSE,158,0.0,0.0,30,0.00,,---,0.00,VWS V14.01,2013-03-02 13:05:00,
2013-03-02 08:06:00,34.0,5.8,29.85,SSE,158,0.0,0.0,30,0.00,,---,0.00,VWS V14.01,2013-03-02 13:06:00,
2013-03-02 08:10:00,34.0,5.8,29.85,SSE,158,0.0,0.0,30,0.00,,---,0.00,VWS V14.01,2013-03-02 13:10:00,
2013-03-02 08:11:00,34.2,6.0,29.85,SSE,158,0.0,0.0,30,0.00,,---,0.00,VWS V14.01,2013-03-02 13:11:00,
2013-03-02 08:15:00,34.2,6.0,29.85,SSE,158,0.0,0.0,30,0.00,,---,0.00,VWS V14.01,2013-03-02 13:15:00,
2013-03-02 08:16:00,34.2,6.0,29.85,SSE,158,0.0,0.0,30,0.00,,---,0.00,VWS V14.01,2013-03-02 13:16:00,
2013-03-02 08:20:00,34.0,5.8,29.85,SSE,158,3.1,4.9,30,0.00,,---,0.00,VWS V14.01,2013-03-02 13:20:00,
2013-03-02 08:21:00,34.0,3.5,29.85,SSE,158,0.0,4.0,27,0.00,,---,0.00,VWS V14.01,2013-03-02 13:21:00,
2013-03-02 08:25:00,34.2,6.0,29.85,SSE,158,0.0,4.0,30,0.00,,---,0.00,VWS V14.01,2013-03-02 13:25:00,
2013-03-02 08:26:00,34.3,6.1,29.85,SSE,158,0.0,0.0,30,0.00,,---,0.00,VWS V14.01,2013-03-02 13:26:00,
2013-03-02 08:30:00,34.3,6.1,29.85,SSE,158,0.0,0.0,30,0.00,,---,0.00,VWS V14.01,2013-03-02 13:30:00,
2013-03-02 08:35:00,34.5,6.3,29.88,SSE,158,0.0,0.0,30,0.00,,---,0.00,VWS V14.01,2013-03-02 13:35:00,
2013-03-02 08:40:00,34.5,4.0,29.88,SSE,158,0.0,0.0,27,0.00,,---,0.00,VWS V14.01,2013-03-02 13:40:00,
2013-03-02 08:45:00,34.5,4.0,29.88,SSE,158,0.0,0.0,27,0.00,,---,0.00,VWS V14.01,2013-03-02 13:45:00,
2013-03-02 08:50:00,34.9,6.6,29.88,SSE,158,0.0,2.7,30,0.00,,---,0.00,VWS V14.01,2013-03-02 13:50:00,
2013-03-02 08:55:00,35.1,4.5,29.88,SSE,158,0.0,3.6,27,0.00,,---,0.00,VWS V14.01,2013-03-02 13:55:00,
2013-03-02 09:00:00,35.1,4.5,29.88,SSE,158,0.0,2.7,27,0.00,,---,0.00,VWS V14.01,2013-03-02 14:00:00,
2013-03-02 09:05:00,35.1,2.8,29.88,SSE,158,2.7,4.0,25,0.00,,---,0.00,VWS V14.01,2013-03-02 14:05:00,
2013-03-02 09:10:00,35.1,2.8,29.88,SW,225,2.2,4.9,25,0.00,,---,0.00,VWS V14.01,2013-03-02 14:10:00,
2013-03-02 09:15:00,35.2,4.6,29.88,South,180,0.0,3.1,27,0.00,,---,0.00,VWS V14.01,2013-03-02 14:15:00,
2013-03-02 09:20:00,35.4,4.8,29.85,South,180,0.0,2.7,27,0.00,,---,0.00,VWS V14.01,2013-03-02 14:20:00,
2013-03-02 09:25:00,35.6,4.9,29.85,South,180,0.0,2.7,27,0.00,,---,0.00,VWS V14.01,2013-03-02 14:25:00,
2013-03-02 09:30:00,35.8,5.1,29.85,South,180,0.0,2.2,27,0.00,,---,0.00,VWS V14.01,2013-03-02 14:30:00,
2013-03-02 09:35:00,35.6,2.4,29.85,SSE,158,2.7,3.6,24,0.00,,---,0.00,VWS V14.01,2013-03-02 14:35:00,
2013-03-02 09:40:00,36.0,2.7,29.85,South,180,0.0,0.0,24,0.00,,---,0.00,VWS V14.01,2013-03-02 14:40:00,
2013-03-02 09:45:00,36.1,2.8,29.85,South,180,4.0,4.0,24,0.00,,---,0.00,VWS V14.01,2013-03-02 14:45:00,
2013-03-02 09:50:00,36.3,3.0,29.85,South,180,0.0,0.0,24,0.00,,---,0.00,VWS V14.01,2013-03-02 14:50:00,
2013-03-02 09:55:00,36.9,6.0,29.85,South,180,0.0,0.0,27,0.00,,---,0.00,VWS V14.01,2013-03-02 14:55:00,
2013-03-02 10:00:00,37.0,3.6,29.85,South,180,0.0,0.0,24,0.00,,---,0.00,VWS V14.01,2013-03-02 15:00:00,
2013-03-02 10:05:00,37.2,3.8,29.85,South,180,0.0,2.2,24,0.00,,---,0.00,VWS V14.01,2013-03-02 15:05:00,
2013-03-02 10:10:00,37.6,4.1,29.85,South,180,0.0,0.0,24,0.00,,---,0.00,VWS V14.01,2013-03-02 15:10:00,
2013-03-02 10:15:00,38.1,4.5,29.85,South,180,0.0,0.0,24,0.00,,---,0.00,VWS V14.01,2013-03-02 15:15:00,
2013-03-02 10:20:00,38.1,4.5,29.85,South,180,0.0,3.1,24,0.00,,---,0.00,VWS V14.01,2013-03-02 15:20:00,
2013-03-02 10:25:00,38.5,4.8,29.85,South,180,0.0,2.7,24,0.00,,---,0.00,VWS V14.01,2013-03-02 15:25:00,
2013-03-02 10:30:00,39.4,4.7,29.85,South,180,0.0,0.0,23,0.00,,---,0.00,VWS V14.01,2013-03-02 15:30:00,
2013-03-02 10:35:00,39.4,4.7,29.85,South,180,0.0,0.0,23,0.00,,---,0.00,VWS V14.01,2013-03-02 15:35:00,
2013-03-02 10:40:00,40.1,5.3,29.85,South,180,0.0,0.0,23,0.00,,---,0.00,VWS V14.01,2013-03-02 15:40:00,
2013-03-02 10:45:00,39.7,3.0,29.85,South,180,0.0,2.2,21,0.00,,---,0.00,VWS V14.01,2013-03-02 15:45:00,
2013-03-02 10:50:00,39.2,2.6,29.85,South,180,0.0,3.1,21,0.00,,---,0.00,VWS V14.01,2013-03-02 15:50:00,
2013-03-02 10:55:00,39.7,3.0,29.85,South,180,0.0,0.0,21,0.00,,---,0.00,VWS V14.01,2013-03-02 15:55:00,
2013-03-02 11:00:00,39.9,3.2,29.85,South,180,0.0,2.2,21,0.00,,---,0.00,VWS V14.01,2013-03-02 16:00:00,
2013-03-02 11:05:00,39.9,3.2,29.85,South,180,2.2,2.2,21,0.00,,---,0.00,VWS V14.01,2013-03-02 16:05:00,
2013-03-02 11:10:00,40.3,5.4,29.85,South,180,0.0,2.2,23,0.00,,---,0.00,VWS V14.01,2013-03-02 16:10:00,
2013-03-02 11:15:00,40.3,3.5,29.85,South,180,0.0,2.7,21,0.00,,---,0.00,VWS V14.01,2013-03-02 16:15:00,
2013-03-02 11:20:00,40.8,3.9,29.82,South,180,0.0,0.0,21,0.00,,---,0.00,VWS V14.01,2013-03-02 16:20:00,
2013-03-02 11:25:00,41.5,4.5,29.82,South,180,0.0,2.7,21,0.00,,---,0.00,VWS V14.01,2013-03-02 16:25:00,
2013-03-02 11:30:00,42.6,5.4,29.82,South,180,0.0,0.0,21,0.00,,---,0.00,VWS V14.01,2013-03-02 16:30:00,
2013-03-02 11:35:00,42.6,5.4,29.82,South,180,0.0,2.7,21,0.00,,---,0.00,VWS V14.01,2013-03-02 16:35:00,
2013-03-02 11:40:00,43.0,4.7,29.82,South,180,0.0,0.0,20,0.00,,---,0.00,VWS V14.01,2013-03-02 16:40:00,
2013-03-02 11:45:00,43.0,4.7,29.82,South,180,0.0,0.0,20,0.00,,---,0.00,VWS V14.01,2013-03-02 16:45:00,
2013-03-02 11:50:00,42.8,4.5,29.82,South,180,3.6,3.6,20,0.00,,---,0.00,VWS V14.01,2013-03-02 16:50:00,
2013-03-02 11:55:00,43.0,4.7,29.82,South,180,0.0,0.0,20,0.00,,---,0.00,VWS V14.01,2013-03-02 16:55:00,
2013-03-02 12:00:00,42.6,5.4,29.82,South,180,2.7,2.7,21,0.00,,---,0.00,VWS V14.01,2013-03-02 17:00:00,
2013-03-02 12:05:00,41.9,4.8,29.82,SSE,158,0.0,2.7,21,0.00,,---,0.00,VWS V14.01,2013-03-02 17:05:00,
2013-03-02 12:10:00,41.5,4.5,29.82,SSE,158,0.0,0.0,21,0.00,,---,0.00,VWS V14.01,2013-03-02 17:10:00,
2013-03-02 12:15:00,41.0,4.1,29.82,SSE,158,0.0,2.7,21,0.00,,---,0.00,VWS V14.01,2013-03-02 17:15:00,
2013-03-02 12:20:00,41.2,4.2,29.82,SSE,158,0.0,2.7,21,0.00,,---,0.00,VWS V14.01,2013-03-02 17:20:00,
2013-03-02 12:25:00,41.7,4.7,29.82,SSE,158,0.0,3.1,21,0.00,,---,0.00,VWS V14.01,2013-03-02 17:25:00,
2013-03-02 12:30:00,41.5,4.5,29.82,SSE,158,0.0,2.2,21,0.00,,---,0.00,VWS V14.01,2013-03-02 17:30:00,
2013-03-02 12:35:00,42.1,5.0,29.82,South,180,4.0,4.0,21,0.00,,---,0.00,VWS V14.01,2013-03-02 17:35:00,
2013-03-02 12:40:00,41.7,4.7,29.82,South,180,0.0,0.0,21,0.00,,---,0.00,VWS V14.01,2013-03-02 17:40:00,
2013-03-02 12:45:00,41.4,4.4,29.82,South,180,0.0,0.0,21,0.00,,---,0.00,VWS V14.01,2013-03-02 17:45:00,
2013-03-02 12:50:00,40.5,3.6,29.82,South,180,0.0,3.1,21,0.00,,---,0.00,VWS V14.01,2013-03-02 17:50:00,
2013-03-02 12:55:00,41.2,4.2,29.82,South,180,0.0,0.0,21,0.00,,---,0.00,VWS V14.01,2013-03-02 17:55:00,
2013-03-02 13:00:00,41.5,4.5,29.82,South,180,0.0,0.0,21,0.00,,---,0.00,VWS V14.01,2013-03-02 18:00:00,
2013-03-02 13:05:00,41.4,4.4,29.79,South,180,3.1,3.1,21,0.00,,---,0.00,VWS V14.01,2013-03-02 18:05:00,
2013-03-02 13:10:00,41.0,4.1,29.79,South,180,0.0,0.0,21,0.00,,---,0.00,VWS V14.01,2013-03-02 18:10:00,
2013-03-02 13:32:00,40.3,3.5,29.79,South,180,0.0,0.0,21,0.00,,---,0.00,VWS V14.01,2013-03-02 18:32:00,
2013-03-02 13:35:00,40.3,3.5,29.80,South,180,0.0,0.0,21,0.00,,---,0.00,VWS V14.01,2013-03-02 18:35:00,
2013-03-02 13:37:00,40.3,3.5,29.79,South,180,0.0,0.0,21,0.00,,---,0.00,VWS V14.01,2013-03-02 18:37:00,
2013-03-02 13:40:00,40.1,3.3,29.80,South,180,2.7,2.7,21,0.00,,---,0.00,VWS V14.01,2013-03-02 18:40:00,
2013-03-02 13:42:00,39.9,3.2,29.79,South,180,2.2,2.7,21,0.00,,---,0.00,VWS V14.01,2013-03-02 18:42:00,
2013-03-02 13:45:00,39.6,2.9,29.80,South,180,0.0,2.7,21,0.00,,---,0.00,VWS V14.01,2013-03-02 18:45:00,
2013-03-02 13:47:00,39.7,3.0,29.79,South,180,0.0,0.0,21,0.00,,---,0.00,VWS V14.01,2013-03-02 18:47:00,
2013-03-02 13:50:00,39.7,3.0,29.80,South,180,0.0,0.0,21,0.00,,---,0.00,VWS V14.01,2013-03-02 18:50:00,
2013-03-02 13:52:00,39.6,2.9,29.79,South,180,0.0,0.0,21,0.00,,---,0.00,VWS V14.01,2013-03-02 18:52:00,
2013-03-02 13:55:00,39.4,2.7,29.80,South,180,0.0,0.0,21,0.00,,---,0.00,VWS V14.01,2013-03-02 18:55:00,
2013-03-02 13:57:00,39.4,2.7,29.79,South,180,0.0,0.0,21,0.00,,---,0.00,VWS V14.01,2013-03-02 18:57:00,
2013-03-02 14:00:00,39.4,2.7,29.80,West,270,2.7,3.1,21,0.00,,---,0.00,VWS V14.01,2013-03-02 19:00:00,
2013-03-02 14:02:00,39.4,2.7,29.79,West,270,2.2,2.7,21,0.00,,---,0.00,VWS V14.01,2013-03-02 19:02:00,
2013-03-02 14:05:00,39.2,2.6,29.80,West,270,2.7,2.7,21,0.00,,---,0.00,VWS V14.01,2013-03-02 19:05:00,
2013-03-02 14:07:00,39.2,2.6,29.79,West,270,0.0,2.7,21,0.00,,---,0.00,VWS V14.01,2013-03-02 19:07:00,
2013-03-02 14:10:00,39.4,2.7,29.80,West,270,0.0,2.7,21,0.00,,---,0.00,VWS V14.01,2013-03-02 19:10:00,
2013-03-02 14:12:00,39.2,2.6,29.79,West,270,0.0,0.0,21,0.00,,---,0.00,VWS V14.01,2013-03-02 19:12:00,
2013-03-02 14:15:00,39.4,2.7,29.80,West,270,0.0,0.0,21,0.00,,---,0.00,VWS V14.01,2013-03-02 19:15:00,
2013-03-02 14:17:00,39.4,2.7,29.79,West,270,0.0,0.0,21,0.00,,---,0.00,VWS V14.01,2013-03-02 19:17:00,
2013-03-02 14:20:00,39.4,2.7,29.80,West,270,0.0,2.7,21,0.00,,---,0.00,VWS V14.01,2013-03-02 19:20:00,
2013-03-02 14:22:00,39.7,3.0,29.79,West,270,0.0,0.0,21,0.00,,---,0.00,VWS V14.01,2013-03-02 19:22:00,
2013-03-02 14:25:00,39.7,3.0,29.80,South,180,0.0,3.1,21,0.00,,---,0.00,VWS V14.01,2013-03-02 19:25:00,
2013-03-02 14:27:00,39.9,3.2,29.79,South,180,0.0,2.7,21,0.00,,---,0.00,VWS V14.01,2013-03-02 19:27:00,
2013-03-02 14:30:00,40.1,3.3,29.80,South,180,0.0,2.7,21,0.00,,---,0.00,VWS V14.01,2013-03-02 19:30:00,
2013-03-02 14:32:00,40.1,3.3,29.79,South,180,0.0,0.0,21,0.00,,---,0.00,VWS V14.01,2013-03-02 19:32:00,
2013-03-02 14:35:00,40.3,3.5,29.80,South,180,0.0,0.0,21,0.00,,---,0.00,VWS V14.01,2013-03-02 19:35:00,
2013-03-02 14:37:00,40.3,3.5,29.79,South,180,2.7,2.7,21,0.00,,---,0.00,VWS V14.01,2013-03-02 19:37:00,
2013-03-02 14:40:00,40.1,3.3,29.80,South,180,0.0,2.7,21,0.00,,---,0.00,VWS V14.01,2013-03-02 19:40:00,
2013-03-02 14:42:00,40.1,3.3,29.79,South,180,2.2,2.2,21,0.00,,---,0.00,VWS V14.01,2013-03-02 19:42:00,
2013-03-02 14:45:00,40.3,3.5,29.80,South,180,0.0,2.2,21,0.00,,---,0.00,VWS V14.01,2013-03-02 19:45:00,
2013-03-02 14:47:00,40.1,3.3,29.79,South,180,0.0,3.6,21,0.00,,---,0.00,VWS V14.01,2013-03-02 19:47:00,
2013-03-02 14:50:00,39.9,3.2,29.80,South,180,0.0,3.6,21,0.00,,---,0.00,VWS V14.01,2013-03-02 19:50:00,
2013-03-02 14:52:00,39.9,3.2,29.79,South,180,0.0,2.7,21,0.00,,---,0.00,VWS V14.01,2013-03-02 19:52:00,
2013-03-02 14:55:00,39.9,3.2,29.80,South,180,0.0,3.1,21,0.00,,---,0.00,VWS V14.01,2013-03-02 19:55:00,
2013-03-02 14:57:00,39.7,3.0,29.79,South,180,2.7,3.1,21,0.00,,---,0.00,VWS V14.01,2013-03-02 19:57:00,
2013-03-02 15:00:00,39.9,3.2,29.80,South,180,2.2,3.1,21,0.00,,---,0.00,VWS V14.01,2013-03-02 20:00:00,
2013-03-02 15:02:00,39.7,3.0,29.79,South,180,0.0,3.1,21,0.00,,---,0.00,VWS V14.01,2013-03-02 20:02:00,
2013-03-02 15:05:00,39.6,2.9,29.80,South,180,0.0,3.1,21,0.00,,---,0.00,VWS V14.01,2013-03-02 20:05:00,
2013-03-02 15:07:00,39.7,3.0,29.79,South,180,0.0,0.0,21,0.00,,---,0.00,VWS V14.01,2013-03-02 20:07:00,
2013-03-02 15:14:00,39.7,3.0,29.79,South,180,0.0,0.0,21,0.00,,---,0.00,VWS V14.01,2013-03-02 20:14:00,
2013-03-02 15:15:00,39.7,3.0,29.80,South,180,0.0,0.0,21,0.00,,---,0.00,VWS V14.01,2013-03-02 20:15:00,
2013-03-02 15:19:00,39.6,2.9,29.79,South,180,0.0,2.7,21,0.00,,---,0.00,VWS V14.01,2013-03-02 20:19:00,
2013-03-02 15:20:00,39.6,2.9,29.80,South,180,0.0,2.7,21,0.00,,---,0.00,VWS V14.01,2013-03-02 20:20:00,
2013-03-02 15:24:00,39.4,2.7,29.79,South,180,0.0,3.1,21,0.00,,---,0.00,VWS V14.01,2013-03-02 20:24:00,
2013-03-02 15:25:00,39.2,2.6,29.80,South,180,0.0,3.1,21,0.00,,---,0.00,VWS V14.01,2013-03-02 20:25:00,
2013-03-02 15:29:00,39.2,2.6,29.79,South,180,2.7,4.0,21,0.00,,---,0.00,VWS V14.01,2013-03-02 20:29:00,
2013-03-02 15:30:00,39.2,2.6,29.80,South,180,0.0,4.0,21,0.00,,---,0.00,VWS V14.01,2013-03-02 20:30:00,
2013-03-02 15:34:00,39.2,2.6,29.79,South,180,0.0,2.7,21,0.00,,---,0.00,VWS V14.01,2013-03-02 20:34:00,
2013-03-02 15:35:00,39.2,2.6,29.80,South,180,2.7,2.7,21,0.00,,---,0.00,VWS V14.01,2013-03-02 20:35:00,
2013-03-02 15:39:00,39.0,2.4,29.79,South,180,2.7,2.7,21,0.00,,---,0.00,VWS V14.01,2013-03-02 20:39:00,
2013-03-02 15:40:00,39.0,2.4,29.80,South,180,2.2,2.7,21,0.00,,---,0.00,VWS V14.01,2013-03-02 20:40:00,
2013-03-02 15:44:00,38.8,2.3,29.79,South,180,0.0,2.7,21,0.00,,---,0.00,VWS V14.01,2013-03-02 20:44:00,
2013-03-02 15:45:00,38.8,2.3,29.80,South,180,0.0,2.7,21,0.00,,---,0.00,VWS V14.01,2013-03-02 20:45:00,
2013-03-02 15:49:00,39.0,2.4,29.79,South,180,2.2,2.2,21,0.00,,---,0.00,VWS V14.01,2013-03-02 20:49:00,
2013-03-02 15:50:00,39.0,2.4,29.80,South,180,0.0,2.7,21,0.00,,---,0.00,VWS V14.01,2013-03-02 20:50:00,
2013-03-02 15:54:00,38.8,2.3,29.79,South,180,0.0,3.6,21,0.00,,---,0.00,VWS V14.01,2013-03-02 20:54:00,
2013-03-02 15:55:00,38.8,2.3,29.80,South,180,0.0,3.6,21,0.00,,---,0.00,VWS V14.01,2013-03-02 20:55:00,
2013-03-02 15:59:00,39.0,2.4,29.79,South,180,2.7,2.7,21,0.00,,---,0.00,VWS V14.01,2013-03-02 20:59:00,
2013-03-02 16:00:00,39.0,2.4,29.80,South,180,0.0,2.7,21,0.00,,---,0.00,VWS V14.01,2013-03-02 21:00:00,
2013-03-02 16:04:00,38.8,2.3,29.79,South,180,2.2,2.2,21,0.00,,---,0.00,VWS V14.01,2013-03-02 21:04:00,
2013-03-02 16:05:00,38.8,2.3,29.80,South,180,0.0,2.2,21,0.00,,---,0.00,VWS V14.01,2013-03-02 21:05:00,
2013-03-02 16:09:00,39.0,2.4,29.79,South,180,0.0,2.2,21,0.00,,---,0.00,VWS V14.01,2013-03-02 21:09:00,
2013-03-02 16:10:00,39.0,2.4,29.80,South,180,0.0,2.2,21,0.00,,---,0.00,VWS V14.01,2013-03-02 21:10:00,
2013-03-02 16:14:00,38.8,2.3,29.79,South,180,0.0,2.2,21,0.00,,---,0.00,VWS V14.01,2013-03-02 21:14:00,
2013-03-02 16:15:00,38.8,2.3,29.80,South,180,0.0,2.2,21,0.00,,---,0.00,VWS V14.01,2013-03-02 21:15:00,
2013-03-02 16:19:00,38.8,2.3,29.79,South,180,0.0,3.1,21,0.00,,---,0.00,VWS V14.01,2013-03-02 21:19:00,
2013-03-02 16:20:00,38.8,2.3,29.80,South,180,0.0,3.1,21,0.00,,---,0.00,VWS V14.01,2013-03-02 21:20:00,
2013-03-02 16:24:00,38.7,2.1,29.79,South,180,0.0,3.1,21,0.00,,---,0.00,VWS V14.01,2013-03-02 21:24:00,
2013-03-02 16:25:00,38.7,2.1,29.80,South,180,0.0,3.1,21,0.00,,---,0.00,VWS V14.01,2013-03-02 21:25:00,
2013-03-02 16:29:00,38.7,2.1,29.79,South,180,0.0,2.2,21,0.00,,---,0.00,VWS V14.01,2013-03-02 21:29:00,
2013-03-02 16:30:00,38.7,2.1,29.80,South,180,0.0,2.2,21,0.00,,---,0.00,VWS V14.01,2013-03-02 21:30:00,
2013-03-02 16:34:00,38.7,2.1,29.79,South,180,0.0,2.7,21,0.00,,---,0.00,VWS V14.01,2013-03-02 21:34:00,
2013-03-02 16:35:00,38.7,2.1,29.80,South,180,0.0,2.7,21,0.00,,---,0.00,VWS V14.01,2013-03-02 21:35:00,
2013-03-02 16:39:00,38.5,2.0,29.79,South,180,0.0,4.0,21,0.00,,---,0.00,VWS V14.01,2013-03-02 21:39:00,
2013-03-02 16:40:00,38.5,2.0,29.80,South,180,0.0,4.0,21,0.00,,---,0.00,VWS V14.01,2013-03-02 21:40:00,
2013-03-02 16:44:00,38.3,1.8,29.79,South,180,2.7,2.7,21,0.00,,---,0.00,VWS V14.01,2013-03-02 21:44:00,
2013-03-02 16:45:00,38.3,1.8,29.80,South,180,2.7,2.7,21,0.00,,---,0.00,VWS V14.01,2013-03-02 21:45:00,
2013-03-02 16:49:00,38.1,1.6,29.79,South,180,0.0,2.7,21,0.00,,---,0.00,VWS V14.01,2013-03-02 21:49:00,
2013-03-02 16:50:00,38.1,1.6,29.80,South,180,0.0,2.7,21,0.00,,---,0.00,VWS V14.01,2013-03-02 21:50:00,
2013-03-02 16:54:00,38.1,1.6,29.79,South,180,0.0,0.0,21,0.00,,---,0.00,VWS V14.01,2013-03-02 21:54:00,
2013-03-02 16:55:00,38.1,1.6,29.80,South,180,0.0,0.0,21,0.00,,---,0.00,VWS V14.01,2013-03-02 21:55:00,
2013-03-02 16:59:00,37.9,1.5,29.79,South,180,0.0,2.7,21,0.00,,---,0.00,VWS V14.01,2013-03-02 21:59:00,
2013-03-02 17:00:00,37.9,1.5,29.80,South,180,0.0,2.7,21,0.00,,---,0.00,VWS V14.01,2013-03-02 22:00:00,
2013-03-02 17:04:00,37.9,4.4,29.79,South,180,0.0,0.0,24,0.00,,---,0.00,VWS V14.01,2013-03-02 22:04:00,
2013-03-02 17:05:00,37.9,4.4,29.80,South,180,0.0,0.0,24,0.00,,---,0.00,VWS V14.01,2013-03-02 22:05:00,
2013-03-02 17:09:00,37.9,4.4,29.79,South,180,0.0,0.0,24,0.00,,---,0.00,VWS V14.01,2013-03-02 22:09:00,
2013-03-02 17:10:00,37.9,4.4,29.80,South,180,0.0,0.0,24,0.00,,---,0.00,VWS V14.01,2013-03-02 22:10:00,
2013-03-02 17:14:00,37.9,4.4,29.79,South,180,0.0,2.2,24,0.00,,---,0.00,VWS V14.01,2013-03-02 22:14:00,
2013-03-02 17:15:00,37.9,4.4,29.80,South,180,0.0,2.2,24,0.00,,---,0.00,VWS V14.01,2013-03-02 22:15:00,
2013-03-02 17:19:00,37.8,4.2,29.79,South,180,0.0,0.0,24,0.00,,---,0.00,VWS V14.01,2013-03-02 22:19:00,
2013-03-02 17:20:00,37.8,4.2,29.80,South,180,0.0,0.0,24,0.00,,---,0.00,VWS V14.01,2013-03-02 22:20:00,
2013-03-02 17:24:00,37.6,1.2,29.79,South,180,0.0,3.1,21,0.00,,---,0.00,VWS V14.01,2013-03-02 22:24:00,
2013-03-02 17:25:00,37.6,1.2,29.80,South,180,2.2,3.1,21,0.00,,---,0.00,VWS V14.01,2013-03-02 22:25:00,
2013-03-02 17:29:00,37.4,1.0,29.79,South,180,0.0,0.0,21,0.00,,---,0.00,VWS V14.01,2013-03-02 22:29:00,
2013-03-02 17:30:00,37.4,1.0,29.80,South,180,0.0,2.7,21,0.00,,---,0.00,VWS V14.01,2013-03-02 22:30:00,
2013-03-02 17:34:00,37.4,3.9,29.79,South,180,0.0,0.0,24,0.00,,---,0.00,VWS V14.01,2013-03-02 22:34:00,
2013-03-02 17:35:00,37.4,3.9,29.80,South,180,0.0,0.0,24,0.00,,---,0.00,VWS V14.01,2013-03-02 22:35:00,
2013-03-02 17:39:00,37.4,3.9,29.79,South,180,0.0,0.0,24,0.00,,---,0.00,VWS V14.01,2013-03-02 22:39:00,
2013-03-02 17:40:00,37.4,3.9,29.80,South,180,0.0,0.0,24,0.00,,---,0.00,VWS V14.01,2013-03-02 22:40:00,
2013-03-02 17:44:00,37.2,3.8,29.79,South,180,0.0,0.0,24,0.00,,---,0.00,VWS V14.01,2013-03-02 22:44:00,
2013-03-02 17:45:00,37.2,3.8,29.80,South,180,0.0,2.2,24,0.00,,---,0.00,VWS V14.01,2013-03-02 22:45:00,
2013-03-02 17:49:00,37.0,3.6,29.82,South,180,0.0,0.0,24,0.00,,---,0.00,VWS V14.01,2013-03-02 22:49:00,
2013-03-02 17:50:00,37.0,3.6,29.82,South,180,0.0,0.0,24,0.00,,---,0.00,VWS V14.01,2013-03-02 22:50:00,
2013-03-02 17:54:00,37.0,3.6,29.82,South,180,0.0,0.0,24,0.00,,---,0.00,VWS V14.01,2013-03-02 22:54:00,
2013-03-02 17:55:00,37.0,3.6,29.82,South,180,0.0,0.0,24,0.00,,---,0.00,VWS V14.01,2013-03-02 22:55:00,
2013-03-02 17:59:00,37.0,3.6,29.82,South,180,0.0,0.0,24,0.00,,---,0.00,VWS V14.01,2013-03-02 22:59:00,
2013-03-02 18:00:00,37.0,3.6,29.82,South,180,0.0,0.0,24,0.00,,---,0.00,VWS V14.01,2013-03-02 23:00:00,
2013-03-02 18:06:00,36.9,3.5,29.82,South,180,0.0,0.0,24,0.00,,---,0.00,VWS V14.01,2013-03-02 23:06:00,
2013-03-02 18:10:00,36.9,6.0,29.82,South,180,0.0,0.0,27,0.00,,---,0.00,VWS V14.01,2013-03-02 23:10:00,
2013-03-02 18:11:00,36.9,6.0,29.82,South,180,0.0,0.0,27,0.00,,---,0.00,VWS V14.01,2013-03-02 23:11:00,
2013-03-02 18:15:00,36.7,5.9,29.82,South,180,0.0,0.0,27,0.00,,---,0.00,VWS V14.01,2013-03-02 23:15:00,
2013-03-02 18:16:00,36.7,5.9,29.82,South,180,0.0,0.0,27,0.00,,---,0.00,VWS V14.01,2013-03-02 23:16:00,
2013-03-02 18:20:00,36.7,5.9,29.82,South,180,0.0,0.0,27,0.00,,---,0.00,VWS V14.01,2013-03-02 23:20:00,
2013-03-02 18:21:00,36.7,5.9,29.82,South,180,0.0,0.0,27,0.00,,---,0.00,VWS V14.01,2013-03-02 23:21:00,
2013-03-02 18:25:00,36.5,5.7,29.82,South,180,0.0,0.0,27,0.00,,---,0.00,VWS V14.01,2013-03-02 23:25:00,
2013-03-02 18:26:00,36.5,5.7,29.82,South,180,0.0,0.0,27,0.00,,---,0.00,VWS V14.01,2013-03-02 23:26:00,
2013-03-02 18:30:00,36.3,5.6,29.82,South,180,0.0,0.0,27,0.00,,---,0.00,VWS V14.01,2013-03-02 23:30:00,
2013-03-02 18:31:00,36.3,5.6,29.82,South,180,0.0,0.0,27,0.00,,---,0.00,VWS V14.01,2013-03-02 23:31:00,
2013-03-02 18:35:00,36.3,5.6,29.82,South,180,0.0,0.0,27,0.00,,---,0.00,VWS V14.01,2013-03-02 23:35:00,
2013-03-02 18:36:00,36.1,5.4,29.82,South,180,0.0,0.0,27,0.00,,---,0.00,VWS V14.01,2013-03-02 23:36:00,
2013-03-02 18:40:00,36.1,5.4,29.82,South,180,0.0,0.0,27,0.00,,---,0.00,VWS V14.01,2013-03-02 23:40:00,
2013-03-02 18:41:00,36.0,5.2,29.82,South,180,0.0,0.0,27,0.00,,---,0.00,VWS V14.01,2013-03-02 23:41:00,
2013-03-02 18:45:00,35.8,6.7,29.82,South,180,0.0,0.0,29,0.00,,---,0.00,VWS V14.01,2013-03-02 23:45:00,
2013-03-02 18:46:00,35.6,6.5,29.82,South,180,0.0,0.0,29,0.00,,---,0.00,VWS V14.01,2013-03-02 23:46:00,
2013-03-02 18:51:00,35.4,7.1,29.82,South,180,0.0,0.0,30,0.00,,---,0.00,VWS V14.01,2013-03-02 23:51:00,
2013-03-02 18:56:00,35.1,6.8,29.82,South,180,0.0,0.0,30,0.00,,---,0.00,VWS V14.01,2013-03-02 23:56:00,
2013-03-02 19:01:00,34.7,7.2,29.82,South,180,0.0,0.0,31,0.00,,---,0.00,VWS V14.01,2013-03-03 00:01:00,
2013-03-02 19:06:00,34.5,7.0,29.82,South,180,0.0,0.0,31,0.00,,---,0.00,VWS V14.01,2013-03-03 00:06:00,
2013-03-02 19:11:00,34.2,6.7,29.82,South,180,0.0,0.0,31,0.00,,---,0.00,VWS V14.01,2013-03-03 00:11:00,
2013-03-02 19:16:00,33.8,7.1,29.82,South,180,0.0,0.0,32,0.00,,---,0.00,VWS V14.01,2013-03-03 00:16:00,
2013-03-02 19:21:00,33.6,8.9,29.82,South,180,0.0,0.0,35,0.00,,---,0.00,VWS V14.01,2013-03-03 00:21:00,
2013-03-02 19:26:00,33.3,9.2,29.82,South,180,0.0,0.0,36,0.00,,---,0.00,VWS V14.01,2013-03-03 00:26:00,
2013-03-02 19:31:00,33.1,8.4,29.82,South,180,0.0,0.0,35,0.00,,---,0.00,VWS V14.01,2013-03-03 00:31:00,
2013-03-02 19:36:00,32.7,9.9,29.82,South,180,0.0,0.0,38,0.00,,---,0.00,VWS V14.01,2013-03-03 00:36:00,
2013-03-02 19:41:00,32.5,10.9,29.82,South,180,0.0,0.0,40,0.00,,---,0.00,VWS V14.01,2013-03-03 00:41:00,
2013-03-02 19:46:00,32.5,10.9,29.82,South,180,0.0,0.0,40,0.00,,---,0.00,VWS V14.01,2013-03-03 00:46:00,
2013-03-02 19:51:00,32.5,11.5,29.82,South,180,0.0,0.0,41,0.00,,---,0.00,VWS V14.01,2013-03-03 00:51:00,
2013-03-02 19:56:00,32.5,11.5,29.82,South,180,0.0,0.0,41,0.00,,---,0.00,VWS V14.01,2013-03-03 00:56:00,
2013-03-02 20:01:00,32.5,11.5,29.82,South,180,0.0,0.0,41,0.00,,---,0.00,VWS V14.01,2013-03-03 01:01:00,
2013-03-02 20:06:00,32.5,12.0,29.82,South,180,0.0,0.0,42,0.00,,---,0.00,VWS V14.01,2013-03-03 01:06:00,
2013-03-02 20:11:00,32.4,12.4,29.82,South,180,0.0,0.0,43,0.00,,---,0.00,VWS V14.01,2013-03-03 01:11:00,
2013-03-02 20:16:00,32.2,11.7,29.82,South,180,0.0,0.0,42,0.00,,---,0.00,VWS V14.01,2013-03-03 01:16:00,
2013-03-02 20:21:00,32.0,11.5,29.82,South,180,0.0,0.0,42,0.00,,---,0.00,VWS V14.01,2013-03-03 01:21:00,
2013-03-02 20:26:00,32.0,11.5,29.82,South,180,0.0,0.0,42,0.00,,---,0.00,VWS V14.01,2013-03-03 01:26:00,
2013-03-02 20:31:00,31.6,11.2,29.82,South,180,0.0,0.0,42,0.00,,---,0.00,VWS V14.01,2013-03-03 01:31:00,
2013-03-02 20:36:00,31.3,10.9,29.82,South,180,0.0,0.0,42,0.00,,---,0.00,VWS V14.01,2013-03-03 01:36:00,
2013-03-02 20:41:00,31.1,11.2,29.82,South,180,0.0,0.0,43,0.00,,---,0.00,VWS V14.01,2013-03-03 01:41:00,
2013-03-02 20:46:00,30.7,11.4,29.82,South,180,0.0,0.0,44,0.00,,---,0.00,VWS V14.01,2013-03-03 01:46:00,
2013-03-02 20:51:00,30.6,11.8,29.82,South,180,0.0,0.0,45,0.00,,---,0.00,VWS V14.01,2013-03-03 01:51:00,
2013-03-02 20:56:00,30.4,11.6,29.82,South,180,0.0,0.0,45,0.00,,---,0.00,VWS V14.01,2013-03-03 01:56:00,
2013-03-02 21:01:00,30.2,11.4,29.82,South,180,0.0,0.0,45,0.00,,---,0.00,VWS V14.01,2013-03-03 02:01:00,
2013-03-02 21:06:00,29.8,11.6,29.82,South,180,0.0,0.0,46,0.00,,---,0.00,VWS V14.01,2013-03-03 02:06:00,
2013-03-02 21:11:00,29.8,12.1,29.82,South,180,0.0,0.0,47,0.00,,---,0.00,VWS V14.01,2013-03-03 02:11:00,
2013-03-02 21:16:00,29.8,13.5,29.82,South,180,0.0,0.0,50,0.00,,---,0.00,VWS V14.01,2013-03-03 02:16:00,
2013-03-02 21:21:00,30.0,14.1,29.82,South,180,0.0,0.0,51,0.00,,---,0.00,VWS V14.01,2013-03-03 02:21:00,
2013-03-02 21:26:00,29.8,13.5,29.82,South,180,0.0,0.0,50,0.00,,---,0.00,VWS V14.01,2013-03-03 02:26:00,
2013-03-02 21:31:00,29.8,13.5,29.82,South,180,0.0,0.0,50,0.00,,---,0.00,VWS V14.01,2013-03-03 02:31:00,
2013-03-02 21:36:00,30.0,14.1,29.85,South,180,0.0,0.0,51,0.00,,---,0.00,VWS V14.01,2013-03-03 02:36:00,
2013-03-02 21:41:00,30.4,14.0,29.85,South,180,0.0,0.0,50,0.00,,---,0.00,VWS V14.01,2013-03-03 02:41:00,
2013-03-02 21:46:00,30.7,13.4,29.85,South,180,0.0,0.0,48,0.00,,---,0.00,VWS V14.01,2013-03-03 02:46:00,
2013-03-02 21:51:00,30.7,13.9,29.85,South,180,0.0,0.0,49,0.00,,---,0.00,VWS V14.01,2013-03-03 02:51:00,
2013-03-02 21:56:00,30.6,13.2,29.85,South,180,0.0,0.0,48,0.00,,---,0.00,VWS V14.01,2013-03-03 02:56:00,
2013-03-02 22:01:00,30.7,12.9,29.85,South,180,0.0,0.0,47,0.00,,---,0.00,VWS V14.01,2013-03-03 03:01:00,
2013-03-02 22:06:00,30.7,12.4,29.85,South,180,0.0,0.0,46,0.00,,---,0.00,VWS V14.01,2013-03-03 03:06:00,
2013-03-02 22:11:00,30.9,12.1,29.85,South,180,0.0,0.0,45,0.00,,---,0.00,VWS V14.01,2013-03-03 03:11:00,
2013-03-02 22:16:00,30.7,11.9,29.85,South,180,0.0,0.0,45,0.00,,---,0.00,VWS V14.01,2013-03-03 03:16:00,
2013-03-02 22:21:00,30.7,12.4,29.85,South,180,0.0,0.0,46,0.00,,---,0.00,VWS V14.01,2013-03-03 03:21:00,
2013-03-02 22:26:00,30.7,12.4,29.85,South,180,0.0,0.0,46,0.00,,---,0.00,VWS V14.01,2013-03-03 03:26:00,
2013-03-02 22:31:00,31.1,12.8,29.85,South,180,0.0,0.0,46,0.00,,---,0.00,VWS V14.01,2013-03-03 03:31:00,
2013-03-02 22:36:00,31.3,11.9,29.85,South,180,0.0,0.0,44,0.00,,---,0.00,VWS V14.01,2013-03-03 03:36:00,
2013-03-02 22:41:00,31.3,11.4,29.85,South,180,0.0,0.0,43,0.00,,---,0.00,VWS V14.01,2013-03-03 03:41:00,
2013-03-02 22:46:00,31.3,11.4,29.85,South,180,0.0,0.0,43,0.00,,---,0.00,VWS V14.01,2013-03-03 03:46:00,
2013-03-02 22:51:00,31.5,12.1,29.85,South,180,0.0,0.0,44,0.00,,---,0.00,VWS V14.01,2013-03-03 03:51:00,
2013-03-02 22:56:00,31.6,11.7,29.85,South,180,0.0,0.0,43,0.00,,---,0.00,VWS V14.01,2013-03-03 03:56:00,
2013-03-02 23:01:00,31.8,11.4,29.85,South,180,0.0,0.0,42,0.00,,---,0.00,VWS V14.01,2013-03-03 04:01:00,
2013-03-02 23:06:00,31.8,10.8,29.82,South,180,0.0,0.0,41,0.00,,---,0.00,VWS V14.01,2013-03-03 04:06:00,
2013-03-02 23:11:00,31.6,10.6,29.82,South,180,0.0,0.0,41,0.00,,---,0.00,VWS V14.01,2013-03-03 04:11:00,
2013-03-02 23:16:00,31.8,10.8,29.82,South,180,0.0,0.0,41,0.00,,---,0.00,VWS V14.01,2013-03-03 04:16:00,
2013-03-02 23:21:00,31.8,10.3,29.82,South,180,0.0,0.0,40,0.00,,---,0.00,VWS V14.01,2013-03-03 04:21:00,
2013-03-02 23:26:00,32.0,9.9,29.82,South,180,0.0,0.0,39,0.00,,---,0.00,VWS V14.01,2013-03-03 04:26:00,
2013-03-02 23:31:00,31.8,9.7,29.82,South,180,0.0,0.0,39,0.00,,---,0.00,VWS V14.01,2013-03-03 04:31:00,
2013-03-02 23:36:00,31.8,10.3,29.85,South,180,0.0,0.0,40,0.00,,---,0.00,VWS V14.01,2013-03-03 04:36:00,
2013-03-02 23:41:00,31.8,10.3,29.85,South,180,0.0,0.0,40,0.00,,---,0.00,VWS V14.01,2013-03-03 04:41:00,
2013-03-02 23:46:00,31.8,9.7,29.85,South,180,0.0,0.0,39,0.00,,---,0.00,VWS V14.01,2013-03-03 04:46:00,
2013-03-02 23:51:00,32.0,10.4,29.85,South,180,0.0,0.0,40,0.00,,---,0.00,VWS V14.01,2013-03-03 04:51:00,
2013-03-02 23:56:00,31.8,10.3,29.85,South,180,0.0,0.0,40,0.00,,---,0.00,VWS V14.01,2013-03-03 04:56:00,